Location: ??????
(55.7522°N, 37.6156°E)
Time: 11:32:24
(UTC+00:00)

USA 229 DEB - Pass Details

Date: 20 December 2025
Orbit: 844 x 1364 km, 63.4° (Epoch: 10 January)

Event Time Altitude Azimuth Distance (km) Brightness Sun altitude
Exits shadow 03:21:23 31° 274° (W) 2,001 4.5 -20.0°
Maximum altitude 03:23:46 38° 239° (WSW) 1,821 4.5 -19.6°
Drops below altitude 10° 03:31:05 10° 176° (S) 3,351 6.5 -18.6°
Sets 03:34:15 0° 169° (SSE) 4,356 7.3 -18.2°
